QPF
0.08 0.07 0.06 0.06 0.05 0.05 0.04 0.04 0.04 0.04 0.03 0.02 0.02 0.02 0.02 0.03 0.03 0.03 0.03 0.03 0.02 0.02 0.03 0.03 0.03 0.03 0.03 0.03 0.03 0.03 0.03 0.04 0.06 0.07 0.07 0.07 0.08 0.08
0.09 0.08 0.07 0.06 0.05 0.04 0.04 0.03 0.04 0.04 0.03 0.03 0.02 0.02 0.02 0.02 0.03 0.03 0.02 0.03 0.03 0.02 0.03 0.03 0.03 0.03 0.03 0.03 0.03 0.02 0.02 0.03 0.04 0.04 0.04 0.05 0.05 0.06
0.07 0.06 0.06 0.05 0.04 0.04 0.04 0.04 0.04 0.04 0.04 0.03 0.03 0.03 0.03 0.03 0.03 0.03 0.02 0.02 0.02 0.02 0.03 0.03 0.03 0.03 0.03 0.02 0.02 0.02 0.02 0.03 0.03 0.04 0.04 0.05 0.05 0.05
0.07 0.05 0.04 0.04 0.04 0.04 0.04 0.04 0.04 0.03 0.03 0.03 0.03 0.03 0.04 0.04 0.04 0.03 0.03 0.02 0.02 0.02 0.02 0.02 0.02 0.02 0.02 0.02 0.02 0.02 0.03 0.04 0.03 0.04 0.04 0.05 0.05 0.05
0.07 0.07 0.05 0.04 0.04 0.04 0.04 0.04 0.04 0.04 0.04 0.03 0.03 0.03 0.03 0.04 0.05 0.06 0.05 0.04 0.03 0.02 0.02 0.02 0.02 0.03 0.02 0.02 0.02 0.02 0.03 0.04 0.04 0.04 0.05 0.05 0.05 0.06
0.07 0.07 0.06 0.05 0.05 0.04 0.04 0.04 0.04 0.05 0.05 0.05 0.03 0.03 0.03 0.03 0.05 0.07 0.07 0.06 0.05 0.04 0.03 0.03 0.02 0.03 0.03 0.03 0.02 0.03 0.03 0.05 0.05 0.05 0.06 0.06 0.07 0.08
0.05 0.06 0.06 0.05 0.05 0.05 0.04 0.04 0.05 0.06 0.06 0.07 0.06 0.04 0.03 0.04 0.04 0.05 0.05 0.05 0.05 0.04 0.04 0.04 0.03 0.03 0.03 0.03 0.03 0.03 0.04 0.06 0.07 0.06 0.07 0.08 0.10 0.11
0.05 0.05 0.04 0.03 0.04 0.04 0.04 0.04 0.04 0.05 0.06 0.07 0.07 0.07 0.05 0.04 0.04 0.04 0.05 0.05 0.06 0.04 0.04 0.04 0.04 0.04 0.04 0.03 0.05 0.06 0.05 0.06 0.08 0.08 0.08 0.08 0.09 0.10
0.05 0.04 0.04 0.03 0.03 0.03 0.03 0.03 0.03 0.04 0.04 0.05 0.06 0.06 0.05 0.05 0.04 0.05 0.05 0.05 0.04 0.03 0.04 0.05 0.04 0.04 0.03 0.04 0.06 0.06 0.06 0.06 0.06 0.07 0.08 0.08 0.09 0.10
0.05 0.04 0.04 0.03 0.03 0.03 0.03 0.03 0.03 0.03 0.03 0.04 0.05 0.04 0.05 0.05 0.05 0.05 0.05 0.05 0.04 0.04 0.05 0.07 0.06 0.05 0.03 0.04 0.05 0.05 0.05 0.06 0.07 0.08 0.08 0.08 0.09 0.11
0.04 0.03 0.03 0.04 0.04 0.04 0.04 0.04 0.04 0.03 0.02 0.03 0.04 0.05 0.06 0.07 0.07 0.07 0.07 0.07 0.07 0.05 0.05 0.06 0.05 0.05 0.05 0.05 0.05 0.07 0.06 0.06 0.07 0.09 0.10 0.10 0.10 0.11
0.03 0.03 0.03 0.03 0.04 0.05 0.04 0.04 0.04 0.03 0.04 0.04 0.05 0.06 0.06 0.07 0.09 0.08 0.07 0.07 0.07 0.06 0.04 0.04 0.04 0.05 0.06 0.06 0.05 0.06 0.07 0.08 0.08 0.09 0.10 0.10 0.11 0.11
0.04 0.03 0.02 0.03 0.02 0.03 0.03 0.03 0.03 0.03 0.03 0.03 0.05 0.06 0.07 0.07 0.07 0.08 0.07 0.06 0.07 0.06 0.03 0.03 0.05 0.05 0.07 0.06 0.06 0.06 0.07 0.07 0.09 0.10 0.10 0.11 0.11 0.11
0.03 0.03 0.02 0.02 0.02 0.02 0.03 0.03 0.03 0.03 0.03 0.04 0.05 0.06 0.07 0.07 0.06 0.06 0.06 0.06 0.05 0.04 0.03 0.04 0.07 0.07 0.08 0.08 0.09 0.08 0.08 0.08 0.10 0.10 0.10 0.12 0.13 0.12
0.03 0.02 0.02 0.02 0.02 0.02 0.02 0.03 0.04 0.04 0.05 0.05 0.06 0.05 0.05 0.06 0.07 0.07 0.07 0.08 0.08 0.07 0.05 0.05 0.07 0.08 0.10 0.11 0.10 0.09 0.09 0.11 0.12 0.14 0.13 0.13 0.13 0.12
0.03 0.03 0.02 0.02 0.01 0.02 0.03 0.03 0.04 0.05 0.05 0.04 0.05 0.05 0.05 0.06 0.08 0.09 0.10 0.11 0.11 0.11 0.09 0.08 0.08 0.10 0.12 0.12 0.12 0.11 0.10 0.12 0.14 0.16 0.16 0.16 0.14 0.13
0.03 0.04 0.04 0.03 0.03 0.02 0.03 0.04 0.04 0.05 0.05 0.04 0.05 0.05 0.05 0.06 0.07 0.09 0.10 0.11 0.12 0.11 0.10 0.10 0.12 0.14 0.15 0.15 0.15 0.14 0.13 0.13 0.15 0.16 0.18 0.19 0.18 0.16
0.03 0.04 0.05 0.04 0.03 0.03 0.03 0.04 0.04 0.04 0.05 0.04 0.04 0.05 0.05 0.06 0.07 0.07 0.09 0.11 0.13 0.13 0.12 0.12 0.13 0.15 0.17 0.17 0.18 0.16 0.15 0.17 0.18 0.19 0.20 0.19 0.18 0.18
0.03 0.04 0.04 0.04 0.04 0.03 0.03 0.03 0.03 0.03 0.04 0.04 0.04 0.04 0.05 0.06 0.07 0.07 0.09 0.11 0.13 0.14 0.14 0.14 0.14 0.15 0.15 0.15 0.15 0.15 0.16 0.16 0.18 0.20 0.20 0.18 0.17 0.18
0.02 0.03 0.04 0.04 0.05 0.05 0.05 0.04 0.04 0.04 0.04 0.04 0.05 0.05 0.06 0.06 0.07 0.08 0.09 0.10 0.12 0.12 0.13 0.13 0.14 0.15 0.16 0.16 0.16 0.17 0.17 0.17 0.17 0.17 0.17 0.16 0.16 0.17
0.03 0.03 0.04 0.05 0.06 0.07 0.06 0.06 0.05 0.04 0.04 0.05 0.05 0.06 0.07 0.09 0.09 0.08 0.09 0.10 0.11 0.11 0.12 0.13 0.14 0.15 0.15 0.15 0.15 0.17 0.18 0.18 0.16 0.15 0.15 0.15 0.15 0.15
0.03 0.03 0.04 0.05 0.06 0.08 0.08 0.07 0.06 0.05 0.05 0.05 0.06 0.06 0.06 0.08 0.09 0.10 0.09 0.09 0.10 0.10 0.11 0.12 0.13 0.13 0.13 0.14 0.14 0.14 0.16 0.16 0.16 0.14 0.13 0.12 0.11 0.11
0.04 0.04 0.04 0.05 0.06 0.07 0.08 0.08 0.07 0.06 0.06 0.06 0.06 0.06 0.07 0.08 0.08 0.09 0.09 0.09 0.09 0.09 0.10 0.11 0.12 0.12 0.12 0.12 0.12 0.13 0.13 0.13 0.13 0.12 0.13 0.11 0.08 0.07
MSLP
1010.21 1009.77 1009.34 1008.89 1008.42 1007.92 1007.40 1006.87 1006.37 1005.90 1005.52 1005.23 1005.04 1004.95 1004.95 1005.03 1005.15 1005.31 1005.50 1005.71 1005.96 1006.25 1006.59 1007.00 1007.45 1007.96 1008.51 1009.09 1009.69 1010.30 1010.93 1011.56 1012.20 1012.84 1013.47 1014.05 1014.57 1014.97
1010.24 1009.73 1009.21 1008.67 1008.11 1007.51 1006.90 1006.30 1005.72 1005.20 1004.76 1004.42 1004.18 1004.03 1003.97 1003.97 1004.03 1004.12 1004.26 1004.44 1004.68 1004.98 1005.36 1005.82 1006.35 1006.95 1007.59 1008.26 1008.95 1009.65 1010.34 1011.03 1011.72 1012.39 1013.03 1013.62 1014.13 1014.54
1010.30 1009.75 1009.18 1008.58 1007.95 1007.29 1006.62 1005.95 1005.32 1004.74 1004.24 1003.83 1003.51 1003.27 1003.10 1003.00 1002.94 1002.93 1002.98 1003.09 1003.29 1003.59 1003.99 1004.50 1005.11 1005.80 1006.55 1007.34 1008.14 1008.93 1009.71 1010.47 1011.20 1011.90 1012.55 1013.14 1013.64 1014.03
1010.37 1009.82 1009.24 1008.62 1007.96 1007.27 1006.56 1005.85 1005.17 1004.54 1003.97 1003.48 1003.05 1002.70 1002.40 1002.14 1001.94 1001.79 1001.71 1001.73 1001.85 1002.11 1002.52 1003.07 1003.76 1004.55 1005.42 1006.33 1007.25 1008.16 1009.04 1009.87 1010.65 1011.37 1012.04 1012.62 1013.11 1013.49
1010.42 1009.89 1009.33 1008.72 1008.07 1007.37 1006.65 1005.93 1005.22 1004.54 1003.90 1003.32 1002.79 1002.30 1001.85 1001.44 1001.07 1000.76 1000.53 1000.41 1000.45 1000.65 1001.04 1001.61 1002.35 1003.24 1004.22 1005.25 1006.31 1007.34 1008.32 1009.23 1010.07 1010.84 1011.51 1012.09 1012.57 1012.95
1010.39 1009.89 1009.37 1008.79 1008.16 1007.49 1006.78 1006.05 1005.33 1004.61 1003.92 1003.26 1002.63 1002.02 1001.43 1000.87 1000.34 999.87 999.49 999.24 999.17 999.30 999.64 1000.21 1000.99 1001.94 1003.01 1004.16 1005.33 1006.48 1007.57 1008.57 1009.48 1010.29 1010.98 1011.57 1012.06 1012.43
1010.22 1009.75 1009.26 1008.72 1008.13 1007.48 1006.79 1006.07 1005.34 1004.61 1003.89 1003.17 1002.47 1001.77 1001.08 1000.41 999.75 999.16 998.65 998.28 998.10 998.14 998.43 998.97 999.74 1000.72 1001.85 1003.09 1004.35 1005.60 1006.79 1007.88 1008.86 1009.72 1010.46 1011.07 1011.57 1011.96
1009.86 1009.41 1008.93 1008.41 1007.84 1007.22 1006.55 1005.85 1005.12 1004.39 1003.66 1002.93 1002.21 1001.48 1000.74 1000.01 999.29 998.61 998.02 997.56 997.29 997.25 997.46 997.93 998.67 999.64 1000.79 1002.06 1003.39 1004.71 1005.98 1007.15 1008.21 1009.13 1009.92 1010.57 1011.10 1011.53
1009.31 1008.84 1008.35 1007.83 1007.26 1006.64 1005.98 1005.29 1004.58 1003.87 1003.16 1002.46 1001.76 1001.06 1000.34 999.62 998.90 998.21 997.59 997.08 996.73 996.61 996.73 997.13 997.79 998.70 999.81 1001.08 1002.42 1003.79 1005.12 1006.36 1007.48 1008.47 1009.33 1010.04 1010.62 1011.09
1008.60 1008.08 1007.55 1007.00 1006.41 1005.77 1005.10 1004.41 1003.72 1003.03 1002.37 1001.72 1001.09 1000.46 999.83 999.18 998.52 997.88 997.27 996.75 996.37 996.17 996.21 996.50 997.06 997.87 998.91 1000.11 1001.44 1002.80 1004.16 1005.45 1006.65 1007.71 1008.64 1009.43 1010.08 1010.62
1007.81 1007.22 1006.62 1006.02 1005.38 1004.70 1004.01 1003.30 1002.61 1001.94 1001.32 1000.74 1000.20 999.67 999.15 998.62 998.07 997.51 996.97 996.47 996.07 995.82 995.77 995.95 996.38 997.07 997.99 999.11 1000.37 1001.71 1003.08 1004.41 1005.66 1006.81 1007.82 1008.70 1009.45 1010.07
1007.03 1006.37 1005.70 1005.03 1004.32 1003.59 1002.85 1002.10 1001.39 1000.73 1000.13 999.60 999.13 998.71 998.30 997.89 997.46 997.00 996.53 996.08 995.68 995.40 995.27 995.34 995.65 996.21 997.01 998.02 999.20 1000.50 1001.85 1003.21 1004.52 1005.74 1006.85 1007.83 1008.68 1009.41
1006.37 1005.64 1004.91 1004.16 1003.38 1002.58 1001.77 1000.97 1000.21 999.51 998.90 998.38 997.95 997.59 997.26 996.95 996.62 996.25 995.86 995.45 995.07 994.77 994.58 994.57 994.77 995.21 995.89 996.80 997.91 999.16 1000.50 1001.87 1003.23 1004.53 1005.74 1006.83 1007.80 1008.64
1005.88 1005.11 1004.33 1003.52 1002.68 1001.80 1000.90 1000.01 999.17 998.40 997.72 997.16 996.71 996.35 996.05 995.77 995.49 995.19 994.85 994.49 994.14 993.84 993.63 993.57 993.70 994.05 994.65 995.48 996.52 997.73 999.06 1000.46 1001.87 1003.24 1004.54 1005.74 1006.82 1007.77
1005.61 1004.82 1004.01 1003.16 1002.25 1001.29 1000.30 999.30 998.34 997.45 996.66 995.99 995.45 995.01 994.66 994.36 994.08 993.80 993.49 993.17 992.85 992.57 992.37 992.31 992.42 992.75 993.30 994.10 995.11 996.30 997.63 999.05 1000.50 1001.94 1003.32 1004.61 1005.79 1006.85
1005.52 1004.74 1003.92 1003.04 1002.08 1001.04 999.95 998.83 997.73 996.68 995.73 994.89 994.19 993.61 993.14 992.76 992.42 992.11 991.81 991.52 991.24 991.02 990.88 990.86 991.02 991.37 991.94 992.74 993.76 994.95 996.30 997.73 999.22 1000.71 1002.16 1003.52 1004.78 1005.92
1005.58 1004.83 1004.01 1003.11 1002.10 1000.99 999.80 998.55 997.29 996.06 994.91 993.87 992.96 992.19 991.55 991.03 990.59 990.22 989.91 989.64 989.43 989.28 989.24 989.33 989.58 990.02 990.66 991.52 992.57 993.80 995.16 996.62 998.13 999.64 1001.12 1002.53 1003.85 1005.05
1005.73 1005.00 1004.19 1003.27 1002.22 1001.05 999.75 998.38 996.96 995.55 994.19 992.92 991.79 990.80 989.97 989.27 988.71 988.27 987.93 987.69 987.55 987.52 987.61 987.84 988.24 988.81 989.57 990.52 991.64 992.91 994.29 995.76 997.27 998.79 1000.28 1001.70 1003.04 1004.27
1005.91 1005.20 1004.38 1003.44 1002.35 1001.11 999.73 998.23 996.67 995.09 993.54 992.06 990.71 989.51 988.48 987.62 986.94 986.42 986.06 985.86 985.80 985.89 986.13 986.54 987.11 987.84 988.74 989.80 991.00 992.32 993.73 995.19 996.69 998.18 999.64 1001.05 1002.37 1003.61
1006.08 1005.36 1004.53 1003.56 1002.43 1001.12 999.66 998.08 996.40 994.68 992.97 991.32 989.78 988.40 987.20 986.21 985.41 984.84 984.46 984.29 984.33 984.54 984.95 985.52 986.27 987.17 988.21 989.39 990.66 992.02 993.44 994.89 996.35 997.79 999.20 1000.57 1001.86 1003.09
1006.23 1005.49 1004.62 1003.61 1002.43 1001.07 999.55 997.90 996.14 994.33 992.51 990.74 989.08 987.57 986.24 985.14 984.27 983.65 983.27 983.14 983.26 983.59 984.14 984.87 985.77 986.82 987.99 989.26 990.61 991.99 993.41 994.82 996.23 997.61 998.96 1000.26 1001.51 1002.70
1006.35 1005.56 1004.65 1003.59 1002.37 1000.97 999.42 997.73 995.93 994.08 992.21 990.39 988.66 987.08 985.69 984.52 983.61 982.96 982.59 982.50 982.68 983.11 983.76 984.61 985.64 986.80 988.06 989.40 990.78 992.18 993.57 994.95 996.29 997.61 998.88 1000.12 1001.31 1002.46
1006.44 1005.59 1004.63 1003.52 1002.27 1000.85 999.30 997.61 995.83 993.98 992.13 990.31 988.58 987.00 985.59 984.41 983.49 982.84 982.48 982.41 982.63 983.12 983.84 984.76 985.86 987.09 988.40 989.77 991.16 992.54 993.91 995.23 996.51 997.76 998.96 1000.13 1001.27 1002.38
Thickness
5567 5570 5572 5574 5575 5575 5575 5575 5574 5574 5578 5580 5578 5578 5576 5574 5573 5571 5571 5570 5569 5568 5567 5567 5567 5566 5565 5564 5563 5563 5562 5561 5559 5558 5556 5554 5553 5551
5556 5558 5560 5562 5563 5562 5562 5562 5561 5562 5565 5569 5567 5567 5565 5563 5562 5560 5559 5559 5558 5557 5556 5556 5556 5556 5555 5554 5553 5553 5552 5551 5549 5548 5546 5544 5543 5542
5545 5547 5549 5550 5549 5549 5549 5549 5549 5550 5550 5554 5553 5553 5552 5551 5550 5549 5548 5547 5547 5547 5545 5546 5546 5545 5545 5544 5543 5542 5541 5540 5539 5538 5536 5536 5534 5534
5535 5536 5537 5538 5537 5537 5537 5537 5537 5537 5537 5538 5539 5539 5539 5539 5538 5537 5537 5536 5536 5537 5535 5535 5534 5534 5534 5534 5532 5531 5530 5529 5527 5527 5527 5527 5526 5525
5524 5525 5526 5525 5525 5525 5525 5524 5524 5524 5524 5524 5525 5524 5524 5525 5525 5525 5525 5525 5525 5526 5525 5524 5523 5523 5522 5522 5520 5519 5519 5518 5517 5517 5517 5517 5517 5516
5514 5514 5514 5514 5515 5514 5513 5512 5512 5511 5510 5510 5510 5511 5511 5511 5510 5511 5513 5514 5513 5513 5512 5511 5511 5510 5510 5509 5509 5508 5506 5506 5506 5506 5507 5507 5508 5508
5502 5503 5504 5504 5504 5503 5503 5502 5501 5499 5498 5497 5497 5497 5498 5499 5499 5500 5501 5502 5502 5500 5499 5499 5498 5497 5496 5495 5495 5495 5495 5495 5495 5496 5496 5497 5498 5498
5492 5492 5492 5492 5492 5492 5492 5491 5490 5488 5487 5486 5486 5486 5487 5488 5488 5488 5487 5487 5491 5491 5486 5488 5485 5484 5484 5483 5483 5483 5483 5484 5484 5485 5486 5487 5488 5489
5480 5481 5481 5482 5482 5481 5481 5480 5478 5476 5476 5475 5475 5476 5477 5477 5476 5477 5476 5475 5478 5479 5473 5476 5475 5474 5474 5473 5472 5472 5472 5472 5473 5474 5476 5477 5478 5479
5470 5471 5471 5471 5472 5472 5471 5469 5467 5466 5465 5466 5467 5468 5467 5466 5465 5466 5465 5465 5467 5466 5463 5464 5466 5464 5464 5463 5461 5461 5461 5462 5463 5464 5465 5467 5469 5470
5459 5460 5460 5461 5462 5462 5461 5459 5458 5457 5456 5456 5456 5457 5457 5456 5455 5454 5453 5452 5456 5458 5454 5452 5455 5454 5453 5452 5451 5450 5450 5451 5453 5454 5456 5457 5459 5460
5450 5450 5451 5452 5452 5451 5449 5448 5448 5449 5448 5447 5446 5446 5446 5446 5445 5444 5444 5443 5444 5447 5447 5443 5443 5440 5441 5443 5441 5441 5440 5441 5443 5445 5447 5449 5450 5451
5441 5441 5442 5443 5442 5441 5439 5438 5440 5438 5437 5436 5436 5436 5436 5437 5437 5436 5435 5435 5434 5436 5438 5434 5432 5430 5428 5430 5432 5432 5431 5433 5435 5436 5438 5441 5442 5444
5432 5432 5433 5433 5432 5430 5429 5429 5428 5426 5425 5425 5425 5426 5427 5427 5428 5428 5428 5427 5427 5428 5429 5425 5423 5422 5420 5419 5422 5424 5424 5425 5428 5429 5431 5433 5436 5438
5422 5423 5423 5422 5421 5420 5419 5418 5416 5415 5415 5415 5416 5417 5417 5418 5418 5419 5419 5419 5420 5420 5420 5419 5418 5417 5414 5413 5414 5415 5416 5418 5421 5423 5425 5428 5430 5433
5413 5413 5412 5411 5410 5409 5408 5406 5405 5405 5405 5405 5406 5406 5406 5407 5408 5408 5409 5410 5410 5411 5412 5412 5412 5411 5409 5409 5408 5409 5410 5411 5414 5417 5419 5422 5425 5428
5403 5402 5401 5401 5400 5399 5398 5397 5396 5396 5396 5396 5396 5397 5398 5398 5398 5398 5399 5399 5400 5402 5403 5404 5404 5404 5403 5402 5402 5403 5404 5406 5409 5411 5413 5416 5419 5422
5393 5391 5391 5390 5390 5389 5388 5388 5388 5388 5387 5387 5387 5387 5388 5389 5389 5389 5389 5390 5391 5393 5394 5395 5395 5395 5394 5395 5395 5397 5398 5400 5402 5404 5407 5409 5412 5414
5381 5380 5380 5380 5379 5379 5379 5379 5380 5380 5379 5378 5378 5378 5378 5379 5380 5381 5382 5382 5384 5385 5385 5385 5386 5387 5388 5388 5389 5390 5391 5393 5395 5396 5399 5401 5404 5407
5370 5370 5370 5370 5370 5370 5371 5371 5371 5371 5371 5370 5370 5370 5370 5371 5371 5372 5374 5375 5376 5377 5377 5377 5378 5379 5381 5380 5380 5381 5384 5385 5387 5388 5390 5391 5394 5396
5361 5361 5361 5362 5362 5362 5363 5363 5363 5363 5363 5363 5362 5362 5362 5363 5364 5365 5366 5368 5369 5369 5370 5370 5371 5372 5372 5371 5372 5373 5375 5377 5379 5380 5381 5382 5384 5385
5352 5352 5353 5353 5353 5354 5354 5355 5355 5355 5355 5355 5355 5355 5355 5356 5357 5358 5360 5360 5361 5361 5362 5362 5363 5365 5365 5365 5365 5365 5366 5367 5369 5371 5373 5375 5377 5378
5344 5344 5344 5345 5345 5345 5346 5347 5347 5348 5348 5348 5348 5348 5348 5348 5350 5350 5352 5353 5353 5354 5354 5354 5355 5356 5356 5357 5356 5357 5357 5358 5359 5361 5362 5364 5368 5369